Other Public Products
Issued by NWS Charleston, SC

Home | Current Version | Previous Version | Text Only | Print | Product List | Glossary On
Versions: 1 2 3 4 5 6 7 8 9 10 11 12 13 14 15 16 17 18 19 20 21 22 23 24 25 26 27 28 29 30 31 32 33 34 35 36 37 38 39 40 41 42 43 44 45 46 47 48 49 50
941
FPUS82 KCHS 080627
OPUCHS

TEST...KCHS/KSAV Gateway Observations...TEST
National Weather Service Charleston SC
100 AM EST THU DEC 08 2016

NOTE: "fair" indicates few or no clouds below 12,000 feet with no
significant weather and/or obstructions to visibility.

SCZ050-WAZ558-NCZ071-TXZ119-213-PAZ071-DCZ001-FLZ074-172-MI076-
NYZ176-178-MAZ016-IL014-TNZ027-NJZ106-GAZ044-MD014-080700-
...Gateway Observations for Charleston International...

CITY           SKY/WX    TMP DP  RH WIND       PRES   REMARKS
Chas Airport   CLOUDY    54  51  90 CALM      30.08F
6HR MIN TEMP:  50; 6HR MAX TEMP:  54;

Seattle        CLEAR     32  14  47 E13G21    30.29F WCI  22
6HR MIN TEMP:  32; 6HR MAX TEMP:  36;

Charlotte      CLOUDY    50  48  93 SW6       30.05F
6HR MIN TEMP:  50; 6HR MAX TEMP:  53;

Dallas DFW     CLOUDY    40  33  76 N20       30.36R WCI  30
6HR MIN TEMP:  40; 6HR MAX TEMP:  50;

Dallas Love    CLOUDY    42  33  70 N13       30.38R
6HR MIN TEMP:  42; 6HR MAX TEMP:  52;

Philladelphia  CLOUDY    36  33  89 W6        30.04F WCI  31
6HR MIN TEMP:  36; 6HR MAX TEMP:  45;

Wash National  MOCLDY    38  34  85 SW3       30.07F
6HR MIN TEMP:  37; 6HR MAX TEMP:  46;

Baltimore      MOCLDY    31  30  96 W3        30.05F
6HR MIN TEMP:  31; 6HR MAX TEMP:  38;

Miami          CLOUDY    74  71  91 NE7       30.06F
6HR MIN TEMP:  73; 6HR MAX TEMP:  79; 6HR PCP: TRACE;

Detroit        CLOUDY    31  20  63 SW15      30.04S WCI  20
6HR MIN TEMP:  30; 6HR MAX TEMP:  32;

Newark         MOCLDY    39  34  82 W8        30.01F WCI  33
6HR MIN TEMP:  37; 6HR MAX TEMP:  46;

Laguardia      PTCLDY    44  34  67 SW3       30.00F
6HR MIN TEMP:  43; 6HR MAX TEMP:  47;

J F K          PTCLDY    42  34  73 W9        30.01F
6HR MIN TEMP:  41; 6HR MAX TEMP:  47;

Boston Logan   CLEAR     39  35  86 W9        29.98R WCI  33
6HR MIN TEMP:  36; 6HR MAX TEMP:  41;

Ft. Lauderdale LGT RAIN  76  73  91 CALM      30.05F
6HR MIN TEMP:  75; 6HR MAX TEMP:  79; 6HR PCP:  0.52;

Chicago O`Hare FLURRIES  23  13  65 W16G33    30.14S WCI  10
6HR MIN TEMP:  22; 6HR MAX TEMP:  24; 6HR PCP: TRACE;

Chicago Midway FLURRIES  25  13  60 W18       30.16S WCI  11
6HR MIN TEMP:  24; 6HR MAX TEMP:  26; 6HR PCP: TRACE;

Houston Bush   LGT RAIN  56  54  93 N10       30.18S
6HR MIN TEMP:  55; 6HR MAX TEMP:  57; 6HR PCP:  0.19;

Houston Hobby  LGT RAIN  57  55  93 N9        30.17R FOG
6HR MIN TEMP:  57; 6HR MAX TEMP:  60; 6HR PCP:  0.02;

Nashville      CLOUDY    40  24  53 N8        30.24S WCI  34
6HR MIN TEMP:  39; 6HR MAX TEMP:  43;

Atlanta        MOCLDY    44  40  85 NW13      30.11S
6HR MIN TEMP:  44; 6HR MAX TEMP:  51;


$$

GAZ044-118-TXZ119-213-NCZ071-DCZ001-MDZ014-506-PAZ021-071-NJZ106-
NYZ176-178-MAZ106-OHZ011-021-055-MIZ076-KYZ091-ILZ014-INZ047-
MNZ060-080700-
...Gateway Observations for Savannah International...

CITY           SKY/WX    TMP DP  RH WIND       PRES   REMARKS
Savannah Arpt  CLOUDY    57  52  83 W8        30.09F
6HR MIN TEMP:  56; 6HR MAX TEMP:  57;

Atlanta        MOCLDY    44  40  85 NW13      30.11S
6HR MIN TEMP:  44; 6HR MAX TEMP:  51;

Charlotte      CLOUDY    50  48  93 SW6       30.05F
6HR MIN TEMP:  50; 6HR MAX TEMP:  53;

Dallas DFW     CLOUDY    40  33  76 N20       30.36R WCI  30
6HR MIN TEMP:  40; 6HR MAX TEMP:  50;

Houston Bush   LGT RAIN  56  54  93 N10       30.18S
6HR MIN TEMP:  55; 6HR MAX TEMP:  57; 6HR PCP:  0.19;

Wash National  MOCLDY    38  34  85 SW3       30.07F
6HR MIN TEMP:  37; 6HR MAX TEMP:  46;

Wash Dulles    PTCLDY    30  27  88 CALM      30.07S
6HR MIN TEMP:  29; 6HR MAX TEMP:  36;

Baltimore      MOCLDY    31  30  96 W3        30.05F
6HR MIN TEMP:  31; 6HR MAX TEMP:  38;

Philadelphia   CLOUDY    36  33  89 W6        30.04F WCI  31
6HR MIN TEMP:  36; 6HR MAX TEMP:  45;

Newark         MOCLDY    39  34  82 W8        30.01F WCI  33
6HR MIN TEMP:  37; 6HR MAX TEMP:  46;

Laguardia      PTCLDY    44  34  67 SW3       30.00F
6HR MIN TEMP:  43; 6HR MAX TEMP:  47;

J F K          PTCLDY    42  34  73 W9        30.01F
6HR MIN TEMP:  41; 6HR MAX TEMP:  47;

Boston         CLEAR     39  35  86 W9        29.98R WCI  33
6HR MIN TEMP:  36; 6HR MAX TEMP:  41;

Pittsburg      MOCLDY    35  22  58 W5        30.04S WCI  31
6HR MIN TEMP:  35; 6HR MAX TEMP:  38;

Akron          CLOUDY    32  22  66 W14       30.04F WCI  22
6HR MIN TEMP:  32; 6HR MAX TEMP:  35;

Cleveland      CLOUDY    33  22  63 W13G21    30.08S WCI  24
6HR MIN TEMP:  33; 6HR MAX TEMP:  36;

Cincinnati     MOCLDY    31  21  66 W16       30.17R WCI  20
6HR MIN TEMP:  31; 6HR MAX TEMP:  35;

Columbus         N/A     32  24  72 W13       30.11S WCI  22
Detroit        CLOUDY    31  20  63 SW15      30.04S WCI  20
6HR MIN TEMP:  30; 6HR MAX TEMP:  32;

Chicago O`Hare FLURRIES  23  13  65 W16G33    30.14S WCI  10
6HR MIN TEMP:  22; 6HR MAX TEMP:  24; 6HR PCP: TRACE;

Minneapolis    LGT SNOW  16   9  74 W20G28    30.15R WCI  -1
6HR MIN TEMP:  16; 6HR MAX TEMP:  19; 6HR PCP: TRACE;

Indianapolis   MOCLDY    27  20  75 W12       30.20R WCI  17
6HR MIN TEMP:  27; 6HR MAX TEMP:  33;


$$




USA.gov is the U.S. government's official web portal to all federal, state and local government web resources and services.